Regional Weather Roundup
Issued by NWS

Home | Current Version | Previous Version | Graphics & Text | Print | Product List | Glossary On
Versions: 1 2 3 4 5 6 7 8 9 10 11 12 13 14 15 16 17 18 19 20 21 22 23 24 25 26 27 28 29 30 31 32 33 34 35 36 37 38 39 40 41 42 43 44 45 46 47 48 49 50
258
ASUS45 KBOU 200310
RWRCO

WEATHER ROUNDUP FOR COLORADO
NATIONAL WEATHER SERVICE DENVER/BOULDER CO
800 PM MST FRI JAN 19 2018

NOTE: "FAIR" INDICATES FEW OR NO CLOUDS BELOW 12000 FEET WITH NO
SIGNIFICANT WEATHER AND/OR OBSTRUCTIONS TO VISIBILITY.

COZ001>005-013-030-031-200400-
...NORTHWEST COLORADO...

CITY           SKY/WX    TMP DP  RH WIND       PRES   REMARKS
CRAIG          FAIR      37  25  61 SW6       29.81F
HAYDEN         FAIR     N/A N/A N/A CALM      29.83F
MEEKER         FAIR      45  22  40 CALM      29.83S
RABBIT EARS PA FAIR      30  19  64 W7        29.93S WCI  23
STEAMBOAT SPGS FAIR      30  22  69 E6        29.84S WCI  24
WALDEN         FAIR      37  18  44 SW9       29.87S
$$

COZ006>008-011-200400-
...WEST CENTRAL VALLEYS...

CITY           SKY/WX    TMP DP  RH WIND       PRES   REMARKS
GRAND JUNCTION FAIR      38  21  50 E7        29.86F
MONTROSE       FAIR      49  22  34 CALM      29.92R
EAGLE          FAIR      35  19  52 E9        29.89S WCI  28
RIFLE          FAIR      35  24  64 CALM      29.87S
DELTA          FAIR      43  19  38 CALM      29.89S
NUCLA          FAIR      45  21  39 E9        29.96F
$$

COZ017>023-064>068-200400-
...SOUTHWEST COLORADO...

CITY           SKY/WX    TMP DP  RH WIND       PRES   REMARKS
DURANGO        FAIR      34  18  52 N8        29.99S WCI  27
CORTEZ         FAIR      32  20  61 NE8       29.96S WCI  25
PAGOSA SPRINGS FAIR      33  16  51 CALM      30.04S
TELLURIDE      CLOUDY    42  19  38 S6        30.05F
WOLF CREEK PAS FAIR      23  14  68 SW16G22   30.17S WCI  10
$$

COZ009-010-012-014-032>034-037-058>063-200400-
...CENTRAL COLORADO...

CITY           SKY/WX    TMP DP  RH WIND       PRES   REMARKS
ASPEN          FAIR      34  21  59 SW9       29.91S WCI  27
BUENA VISTA    FAIR      40  12  32 CALM      29.93R
COPPER MTN     NOT AVBL
BERTHOUD PASS  FAIR      28  16  59 W48G67    29.95F WCI   9
COTTONWOOD PAS   N/A     45  12  26 SW12G24   29.98S
GUNNISON       FAIR      25  16  68 CALM      29.98S
KREMMLING      FAIR      43  21  42 CALM      29.87S
LEADVILLE      FAIR      32   9  38 E8        29.95F WCI  25
MONARCH PASS   FAIR      27  16  63 SW25G33   30.17S WCI  11
SALIDA         FAIR      49  17  28 S14       30.00S
SUNLIGHT       FAIR      30  18  59 SW21G30   30.01F WCI  17
WILKERSON PASS FAIR      32   9  37 SW16G25   30.03S WCI  21
$$

COZ069>075-200400-
...SAN LUIS VALLEY/SANGRE DE CRISTO MOUNTAINS...

CITY           SKY/WX    TMP DP  RH WIND       PRES   REMARKS
ALAMOSA        FAIR      30  11  45 CALM      29.98R
DEL NORTE      FAIR      37  11  33 CALM      30.00S
LA VETA PASS   FAIR      34  18  51 SW18G31     N/A  WCI  23
SAGUACHE       FAIR      30  12  47 N7        29.98S WCI  23
$$

COZ035-036-038>040-200400-
...NORTHERN COLORADO FRONT RANGE...

CITY           SKY/WX    TMP DP  RH WIND       PRES   REMARKS
DENVER INTL AP FAIR      43  19  38 SE12      29.74S
DMNS CITY PARK NOT AVBL
AURORA         MOCLDY    48  16  28 S12       29.75F
FRONT RANGE AP MOCLDY    43  19  39 E9        29.76S
ERIE MUNI ARPT FAIR      42  17  37 S6        29.77F
BOULDER MUN AP FAIR      57  14  18 SW12      29.73R
CENTENNIAL     MOCLDY    51  13  21 S6        29.76S
BROOMFIELD     PTCLDY    54  16  22 W3        29.76R
FORT COLLINS   FAIR      54  16  22 SW5       29.72F
LONGMONT       FAIR      53  14  21 W10       29.73F
$$

COZ041-046-047-076>085-087-088-200400-
...PIKES PEAK/PALMER DIVIDE AND SOUTHERN FOOTHILLS...

CITY           SKY/WX    TMP DP  RH WIND       PRES   REMARKS
COLO. SPRINGS  FAIR      57  16  20 W5        29.84R
A. F. ACADEMY  FAIR      52  11  19 NW8       29.83F
SCHRIEVER AFB  FAIR      50  14  23 NW6       29.83S
CHEYENNE MTN   FAIR      52  14  22 CALM      29.82S
ELLICOTT         N/A    N/A N/A N/A CALM      29.82R
FALCON         FAIR      47  11  23 S5        29.87S
FORT CARSON    FAIR      52  16  23 W9        29.81S
LIMON          FAIR      36  17  46 SE3       29.78R
MONUMENT HILL  FAIR      46  12  25 SW12      29.86R
CANON CITY     CLEAR     52  18  25 W10       29.81R
WALSENBURG     FAIR      46  18  31 SW12      29.87S
TRINIDAD       FAIR      50  17  27 SW9       29.85R
$$

COZ042>045-048>051-090-091-200400-
...NORTHEAST COLORADO...

CITY           SKY/WX    TMP DP  RH WIND       PRES   REMARKS
GREELEY ARPT   FAIR      30  21  69 CALM      29.73R
AKRON          FAIR      44  23  43 S10       29.74R
BURLINGTON     FAIR      42  19  39 SE12      29.75R
WRAY           FAIR      43  25  49 CALM      29.73R
YUMA           FAIR      36  19  51 S7        29.73S
STERLING       FAIR      32  23  69 CALM      29.72S
HOLYOKE        FAIR      37  27  65 N9        29.74R
FORT MORGAN    FAIR      36  18  47 NE6       29.74R
$$

COZ086-089-092>099-200400-
...SOUTHEAST COLORADO...

CITY           SKY/WX    TMP DP  RH WIND       PRES   REMARKS
PUEBLO         FAIR      44  16  32 W8        29.77R
LA JUNTA       FAIR      58  17  20 W16       29.73R
LAMAR          FAIR      36  13  38 SW7       29.70S
SPRINGFIELD      N/A     40  15  36 W6        29.75S
$$




USA.gov is the U.S. government's official web portal to all federal, state and local government web resources and services.